Powrót do katalogu

IRIDIUM 33 DEB

AktywnyPO
NORAD 35846·DEBRIS·🇺🇸 United States

Wystrzelony Sep 14, 1997 z Baikonur Cosmodrome

Loading…

Następne Przeloty (najbliższe 24 godziny)

TLE

ŚwieżeSource: Space-Track

Epoka: Sep 14, 2026, 13:22 UTC

1 35846U 97051SW  26257.55701645  .00000971  00000-0  27773-3 0  9999
2 35846  86.3731 301.0677 0016831 350.2464   9.8408 14.44071753753081

Śledź IRIDIUM 33 DEB w czasie rzeczywistym z AllMySat

Download on the App Store